SL-14 R/B

Satellite information

Favourite Embed

Satellite Type and Status

ROCKET BODYIN ORBIT

Key statistics

Satellite SL-14 R/B at a glance.

Uptime

13616

Days in orbit

Revolutions

≈ 13.9

Per day

Orbit

LEO

Low Earth Orbit

Inclination

82.5

Latest

Satellite identification and parameters

Extended collection of information and parameters for SL-14 R/B.

Object identification

Identified? True

Debris? False

Object name: SL-14 R/B

International designator: 1988-005B

Object number (NORAD): 18821

Object ID (CCSDS): 18821

Country: COMMONWEALTH OF INDEPENDENT STATES (CIS)

Current information (Y/N): Y

RCS size: LARGE

Orbital parameters

Period: 103.956 minutes

Inclination: 82.5403 deg

SMA: 7323.615 km

Apoapsis: 956.625 km

Periapsis: 934.335 km

RAAN: 285.8492 deg

Eccentricy: 0.0015218

Argument of periapsis: 141.0529 deg

Mean anomaly: 219.1731 deg

Mean motion: 13.85206499 rev/day

Mean motion (dot): 0.00000033 rev/day2

B* drag term: 0.000016193 1/REarth

Two-line elements (TLE)

Creation date: May 10, 2025, 10:16 p.m.

Reference frame: TEME

Reference center: EARTH

Epoch: May 10, 2025, 8:48 p.m. UTC

TLE line 0: 0 SL-14 R/B

TLE line 1: 1 18821U 88005B 25130.86685892 .00000033 00000-0 16193-4 0 9994

TLE line 2: 2 18821 82.5403 285.8492 0015218 141.0529 219.1731 13.85206499884619

Live tracking on map

Real-time ground track for satellite SL-14 R/B.

In-orbit conjunctions

A list of the most updated potential collisions computed for object SL-14 R/B.

Target Orbit TCA Probability of collision Miss distance Type
THORAD AGENA D DEB SSO 2025-02-09 17:42:01 0.0001007557 185.0 (m) DEBRIS
CZ-4B DEB SSO 2025-01-17 01:53:39 0.0001212472 328.0 (m) DEBRIS

Associated space launch

Second generation soviet meteorological satellite

SL-14 R/B was lifted into orbit during the mission ‘Tsiklon-3 | Meteor-2 17’, on board a Tsiklon-3 space rocket.

The launch took place on Jan. 30, 1988, 10:59 a.m. from 32/1.

For more information about the launch, click the button.

Launch to space Tsiklon-3 | Meteor-2 17
Tsiklon-3 | Meteor-2 17

Agency: N/A

Status: Launch Successful

Launch date: Jan. 30, 1988, 10:59 a.m. UTC

Rocket: Tsiklon-3

Launch pad: 32/1

Location: Plesetsk Cosmodrome, Russian Federation

...

Latest news about this satellite

There are no fresh news available about this satellite. Check back as we update our databases every day.


Newsletter sign-up

Weekly statistics, charts and insights to help you stay on top of the space industry.